sat.trackr.live / text

‹ back to catalog

AEROCUBE 6B

NORAD 40046 · 2014-033AN

PAYLOAD ACTIVE UNKNOWN

§ Identity

Operator
Country
US
Launch date
2014-06-19
Launch site
DLS
Launch vehicle
Mass (kg)
RCS (m²)
0.01

Purposes: tech_demo

External: N2YO · Heavens-Above · Gunter

§ Orbital elements

Epoch: 2026-05-25T00:04:13.708416Z

Period
96.05 min
Inclination
97.7184°
Eccentricity
0.0039088
Mean motion
14.99241136 rev/d
Perigee alt
542.1 km
Apogee alt
596.4 km
Semi-major
6,947.4 km
B*
4.9174e-4
RAAN
311.9465°
Arg perigee
86.2061°
Mean anomaly
274.3629°
Rev number
64,328

§ Raw data

AEROCUBE 6B1 40046U 14033AN  26145.00293644  .00006032  00000+0  49174-3 0  99992 40046  97.7184 311.9465 0039088  86.2061 274.3629 14.99241136643288

JSON: /api/v1/satellites/40046 · /tle

For live sub-satellite position, see the globe view (requires WebGL).

§ Visibility from observer

Set your observer location to see the next 7 days of passes ≥ 10°. The values pass through the URL so the page stays shareable.

No JS? Fill the form by hand. The geolocation button needs JavaScript.